{"data":{"norad_id":58449,"epoch":"2026-05-25T03:14:50.028000Z","epoch_age_seconds":53458,"freshness":"FRESH","line1":"1 58449U 23183N   26145.13530125  .00000529  00000+0  28761-4 0  9998","line2":"2 58449  43.0015 304.0314 0001403 279.5210  80.5483 15.27563801138721","mean_motion":15.27563801,"eccentricity":0.0001403,"inclination_deg":43.0015,"raan_deg":304.0314,"arg_perigee_deg":279.521,"mean_anomaly_deg":80.5483,"bstar":2.8761e-5,"rev_number":13872,"period_min":94.267748362283,"perigee_km":482.13497088718,"apogee_km":484.06023331653,"semimajor_km":6861.2346021019,"source":"CELESTRAK","updated_at":"2026-05-25T13:38:18.624429Z"}}